Weather History for Juneau, AK

Change the Weather History Date:

Monday, April 14, 2014

  Actual Average Record
Temperature  
Mean Temperature 41 °F 40 °F  
Max Temperature 50 °F 48 °F 57 °F (2003)
Min Temperature 31 °F 33 °F 20 °F (1967)
Degree Days  
Heating Degree Days 24 25  
Month to date heating degree days 377 368  
Since 1 July heating degree days 7050 7172  
Cooling Degree Days 0 0  
Month to date cooling degree days 0 0  
Year to date cooling degree days 0 0  
Moisture  
Dew Point 32 °F    
Average Humidity 73    
Maximum Humidity 100    
Minimum Humidity 46    
Precipitation  
Precipitation T in 0.10 in 0.52 in (1989)
Month to date precipitation 1.91 1.43  
Year to date precipitation 17.49 14.69  
Snow  
Snow 0.00 in 0.10 in 1.50 in (1966)
Month to date snowfall 0.3 0.9  
Since 1 July snowfall 97.1 86.5  
Snow Depth 0.00 in    
Sea Level Pressure  
Sea Level Pressure 29.91 in    
Wind  
Wind Speed 3 mph (SW)    
Max Wind Speed 12 mph    
Max Gust Speed 14 mph    
Visibility 10 miles    
Events Rain    
T = Trace of Precipitation, MM = Missing Value Source: NWS Daily Summary

Daily Weather History Graph

Daily Weather History Graph

Search for Another Location

Airport:

Trip Planner

Search our weather history database for the weather conditions in past years. The results will help you decide how hot, cold, wet, or windy it might be!

Date:

Astronomy

Apr. 14, 2014 Rise Set
Actual Time 5:48 AM AKDT 8:09 PM AKDT
Civil Twilight 5:05 AM AKDT 8:53 PM AKDT
Nautical Twilight 4:09 AM AKDT 9:50 PM AKDT
Astronomical Twilight 2:57 AM AKDT 11:03 PM AKDT
Moon 7:55 PM AKDT (4/14) 5:34 AM AKDT (4/14)
Length of Visible Light 15h 47m
Length of Day
14h 20m
Full, 100% of the Moon is Illuminated
Apr 14
Full
Apr 14
Full
Apr 21
Last Quarter
Apr 28
New
May 6
First Quarter

Hourly Weather History & Observations

Time (AKDT) Temp. Windchill Dew Point Humidity Pressure Visibility Wind Dir Wind Speed Gust Speed Precip Events Conditions
12:53 AM 34.0 °F - 30.0 °F 85% 30.11 in 10.0 mi Calm Calm - N/A   Partly Cloudy
1:53 AM 34.0 °F - 30.0 °F 85% 30.09 in 10.0 mi Calm Calm - N/A   Partly Cloudy
2:53 AM 33.1 °F - 30.0 °F 89% 30.07 in 10.0 mi Calm Calm - N/A   Scattered Clouds
3:53 AM 32.0 °F - 28.9 °F 88% 30.05 in 10.0 mi Calm Calm - N/A   Scattered Clouds
4:53 AM 33.1 °F - 30.0 °F 89% 30.03 in 10.0 mi Calm Calm - N/A   Scattered Clouds
5:53 AM 30.9 °F 27.5 °F 30.0 °F 96% 30.01 in 10.0 mi East 3.5 mph - N/A   Mostly Cloudy
6:53 AM 33.1 °F - 30.0 °F 89% 29.99 in 10.0 mi Calm Calm - N/A   Overcast
7:53 AM 36.0 °F - 30.9 °F 82% 29.97 in 10.0 mi Calm Calm - N/A   Overcast
8:53 AM 39.0 °F - 33.1 °F 79% 29.95 in 10.0 mi Calm Calm - N/A   Mostly Cloudy
9:53 AM 41.0 °F 37.1 °F 33.1 °F 73% 29.93 in 10.0 mi WSW 5.8 mph - N/A   Overcast
10:53 AM 42.1 °F 40.2 °F 30.0 °F 62% 29.91 in 10.0 mi SSW 3.5 mph - N/A   Overcast
11:53 AM 44.1 °F 40.8 °F 30.9 °F 60% 29.88 in 10.0 mi WSW 5.8 mph - N/A   Overcast
12:53 PM 44.1 °F 40.1 °F 30.9 °F 60% 29.87 in 10.0 mi WSW 6.9 mph - N/A   Overcast
1:53 PM 45.0 °F 40.6 °F 30.0 °F 56% 29.85 in 10.0 mi WSW 8.1 mph - N/A   Overcast
2:53 PM 46.0 °F 41.9 °F 32.0 °F 58% 29.84 in 10.0 mi SW 8.1 mph - N/A   Overcast
3:53 PM 48.0 °F - 28.0 °F 46% 29.83 in 10.0 mi SW 5.8 mph - N/A   Overcast
4:53 PM 48.9 °F - 28.9 °F 46% 29.81 in 10.0 mi WSW 8.1 mph - N/A   Overcast
5:53 PM 46.9 °F - 30.0 °F 52% 29.81 in 10.0 mi WSW 4.6 mph - N/A   Overcast
6:53 PM 46.9 °F - 28.9 °F 50% 29.82 in 10.0 mi Calm Calm - N/A   Overcast
7:53 PM 45.0 °F - 37.0 °F 74% 29.82 in 10.0 mi Calm Calm - 0.00 in Rain Light Rain
8:53 PM 43.0 °F - 37.9 °F 82% 29.83 in 10.0 mi Calm Calm - 0.00 in Rain Light Rain
9:53 PM 43.0 °F - 37.0 °F 80% 29.83 in 10.0 mi Calm Calm - 0.00 in Rain Light Rain
10:53 PM 42.1 °F - 37.0 °F 82% 29.83 in 10.0 mi Calm Calm - 0.00 in Rain Light Rain
11:53 PM 39.0 °F - 37.0 °F 93% 29.84 in 10.0 mi Calm Calm - 0.00 in   Overcast